Carrollton, GA

8:13 AM EST on December 08, 2019 (GMT -0500)
West Georgia Regional-Gray

Weather History for KCTJ - November, 2019

Change the Weather History Date:

Sunday, November 17, 2019

  Actual Average Record
Temperature  
Mean Temperature 48 °F -  
Max Temperature 63 °F 65 °F 82 °F (1958)
Min Temperature 32 °F 39 °F 20 °F (1970)
Degree Days  
Heating Degree Days 18    
Moisture  
Dew Point 41 °F    
Average Humidity 79    
Maximum Humidity 98    
Minimum Humidity 53    
Precipitation  
Precipitation 0.00 in - - ()
Sea Level Pressure  
Sea Level Pressure 30.03 in    
Wind  
Wind Speed 0 mph ()    
Max Wind Speed 5 mph    
Max Gust Speed -    
Visibility 10.0 miles    
Events      
Averages and records for this station are not official NWS values.
T = Trace of Precipitation, MM = Missing Value Source: Averaged Metar Reports

Daily Weather History Graph

Daily Weather History Graph

Search for Another Location

Airport or City:

Astronomy

Nov. 17, 2019 Rise Set
Actual Time 7:14 AM EST 5:36 PM EST
Civil Twilight 6:47 AM EST 6:03 PM EST
Nautical Twilight 6:17 AM EST 6:33 PM EST
Astronomical Twilight 5:47 AM EST 7:02 PM EST
Moon 10:15 PM EST (11/17) 11:55 AM EST (11/17)
Length of Visible Light 11h 15m
Length of Day
10h 22m
Waning Gibbous, 73% of the Moon is Illuminated
Nov 17
Waning Gibbous
Nov 19
Last Quarter
Nov 26
New
Dec 4
First Quarter
Dec 12
Full

Hourly Weather History & Observations

Time (EST) Temp. Windchill Dew Point Humidity Pressure Visibility Wind Dir Wind Speed Gust Speed Precip Events Conditions
12:15 AM 38.5 °F - 36.1 °F 91% 30.10 in 10.0 mi Calm Calm - N/A   Clear
12:35 AM 37.9 °F - 35.8 °F 92% 30.10 in 10.0 mi Calm Calm - N/A   Clear
12:55 AM 37.4 °F - 35.1 °F 91% 30.10 in 10.0 mi Calm Calm - N/A   Clear
1:15 AM 37.0 °F - 35.2 °F 93% 30.09 in 10.0 mi Calm Calm - N/A   Clear
1:35 AM 36.5 °F - 34.7 °F 93% 30.08 in 10.0 mi Calm Calm - N/A   Clear
1:55 AM 35.8 °F - 33.6 °F 92% 30.08 in 10.0 mi Calm Calm - N/A   Clear
2:15 AM 35.4 °F - 34.0 °F 94% 30.08 in 10.0 mi Calm Calm - N/A   Clear
2:35 AM 34.9 °F - 33.6 °F 95% 30.08 in 10.0 mi Calm Calm - N/A   Clear
2:55 AM 34.9 °F - 33.3 °F 94% 30.08 in 10.0 mi Calm Calm - N/A   Clear
3:35 AM 34.9 °F - 33.4 °F 94% 30.09 in 10.0 mi Calm Calm - N/A   Clear
3:55 AM 34.9 °F - 33.3 °F 94% 30.09 in 10.0 mi Calm Calm - N/A   Clear
4:15 AM 34.5 °F - 33.1 °F 94% 30.09 in 10.0 mi Calm Calm - N/A   Clear
4:35 AM 34.0 °F - 32.9 °F 96% 30.09 in 10.0 mi Calm Calm - N/A   Clear
4:55 AM 33.8 °F - 32.7 °F 96% 30.10 in 10.0 mi Calm Calm - N/A   Clear
5:15 AM 34.0 °F - 32.5 °F 94% 30.09 in 10.0 mi Calm Calm - N/A   Clear
5:35 AM 33.1 °F - 32.2 °F 96% 30.09 in 10.0 mi Calm Calm - N/A   Clear
5:55 AM 32.7 °F - 32.0 °F 97% 30.10 in 10.0 mi Calm Calm - N/A   Clear
6:15 AM 32.7 °F - 32.0 °F 97% 30.10 in 10.0 mi Calm Calm - N/A   Clear
6:35 AM 32.4 °F - 31.8 °F 98% 30.10 in 10.0 mi Calm Calm - N/A   Clear
6:55 AM 32.9 °F - 32.2 °F 97% 30.10 in 10.0 mi Calm Calm - N/A   Clear
7:15 AM 33.6 °F - 32.5 °F 96% 30.10 in 10.0 mi Calm Calm - N/A   Clear
7:35 AM 34.5 °F - 32.9 °F 94% 30.11 in 10.0 mi Calm Calm - N/A   Mostly Cloudy
7:55 AM 35.4 °F - 34.3 °F 96% 30.12 in 10.0 mi Calm Calm - N/A   Overcast
8:15 AM 38.5 °F - 36.3 °F 92% 30.12 in 10.0 mi Calm Calm - N/A   Overcast
8:35 AM 42.3 °F - 35.8 °F 78% 30.12 in 10.0 mi Calm Calm - N/A   Overcast
8:55 AM 44.1 °F - 34.2 °F 68% 30.12 in 10.0 mi Calm Calm - N/A   Overcast
9:15 AM 45.9 °F 44.6 °F 34.7 °F 65% 30.11 in 10.0 mi East 3.5 mph - N/A   Overcast
9:35 AM 47.8 °F - 35.6 °F 63% 30.11 in 10.0 mi Calm Calm - N/A   Mostly Cloudy
9:55 AM 50.0 °F - 34.9 °F 56% 30.11 in 10.0 mi Calm Calm - N/A   Scattered Clouds
10:15 AM 50.7 °F - 34.0 °F 53% 30.10 in 10.0 mi Calm Calm - N/A   Clear
10:35 AM 52.2 °F - 35.2 °F 53% 30.10 in 10.0 mi South 3.5 mph - N/A   Clear
10:55 AM 53.4 °F - 36.7 °F 53% 30.09 in 10.0 mi Calm Calm - N/A   Clear
11:15 AM 54.9 °F - 38.5 °F 54% 30.08 in 10.0 mi SSE 3.5 mph - N/A   Clear
11:35 AM 56.3 °F - 40.8 °F 56% 30.07 in 10.0 mi SSE 3.5 mph - N/A   Clear
11:55 AM 57.4 °F - 42.1 °F 57% 30.05 in 10.0 mi South 3.5 mph - N/A   Clear
12:15 PM 59.0 °F - 43.3 °F 56% 30.03 in 10.0 mi SE 3.5 mph - N/A   Clear
12:35 PM 59.7 °F - 45.3 °F 59% 30.02 in 10.0 mi Calm Calm - N/A   Clear
12:55 PM 60.6 °F - 46.0 °F 59% 30.01 in 10.0 mi Calm Calm - N/A   Clear
1:15 PM 61.7 °F - 46.4 °F 57% 30.01 in 10.0 mi Calm Calm - N/A   Clear
1:35 PM 62.8 °F - 46.6 °F 55% 30.00 in 10.0 mi Calm Calm - N/A   Clear
1:55 PM 63.1 °F - 46.6 °F 55% 29.99 in 10.0 mi WNW 4.6 mph - N/A   Clear
2:15 PM 63.5 °F - 46.9 °F 55% 29.98 in 10.0 mi SE 3.5 mph - N/A   Clear
2:35 PM 63.3 °F - 47.3 °F 56% 29.97 in 10.0 mi South 3.5 mph - N/A   Scattered Clouds
2:55 PM 62.6 °F - 47.3 °F 57% 29.96 in 10.0 mi SSE 3.5 mph - N/A   Scattered Clouds
3:15 PM 62.4 °F - 47.3 °F 58% 29.96 in 10.0 mi Calm Calm - N/A   Mostly Cloudy
3:35 PM 63.0 °F - 47.5 °F 57% 29.95 in 10.0 mi South 3.5 mph - N/A   Overcast
3:55 PM 62.2 °F - 47.7 °F 59% 29.95 in 10.0 mi Calm Calm - N/A   Overcast
4:15 PM 61.9 °F - 47.3 °F 59% 29.95 in 10.0 mi Calm Calm - N/A   Overcast
4:35 PM 61.5 °F - 47.8 °F 61% 29.96 in 10.0 mi Calm Calm - N/A   Overcast
4:50 PM 61.2 °F - 47.8 °F 62% 29.96 in 10.0 mi Calm Calm - N/A   Overcast
5:15 PM 59.9 °F - 49.6 °F 69% 29.96 in 10.0 mi Calm Calm - N/A   Overcast
5:35 PM 58.8 °F - 49.8 °F 72% 29.95 in 10.0 mi Calm Calm - N/A   Overcast
6:15 PM 56.8 °F - 50.4 °F 79% 29.95 in 10.0 mi Calm Calm - N/A   Overcast
6:35 PM 55.2 °F - 50.4 °F 84% 29.95 in 10.0 mi Calm Calm - N/A   Scattered Clouds
7:15 PM 52.5 °F - 48.7 °F 87% 29.94 in 10.0 mi Calm Calm - N/A   Clear
7:35 PM 51.3 °F - 48.6 °F 90% 29.94 in 10.0 mi Calm Calm - N/A   Scattered Clouds
7:55 PM 50.7 °F - 48.2 °F 91% 29.95 in 10.0 mi Calm Calm - N/A   Mostly Cloudy
8:15 PM 51.1 °F - 48.6 °F 91% 29.95 in 10.0 mi Calm Calm - N/A   Overcast
8:35 PM 52.7 °F - 49.1 °F 88% 29.95 in 10.0 mi Calm Calm - N/A   Overcast
9:15 PM 51.4 °F - 48.7 °F 90% 29.95 in 10.0 mi Calm Calm - N/A   Overcast
9:35 PM 51.8 °F - 49.1 °F 90% 29.94 in 10.0 mi Calm Calm - N/A   Overcast
9:55 PM 50.4 °F - 48.4 °F 93% 29.93 in 10.0 mi Calm Calm - N/A   Mostly Cloudy
10:15 PM 49.3 °F - 47.8 °F 95% 29.93 in 10.0 mi Calm Calm - N/A   Scattered Clouds
10:35 PM 48.0 °F - 46.9 °F 96% 29.93 in 10.0 mi Calm Calm - N/A   Clear
11:15 PM 46.2 °F - 45.5 °F 97% 29.93 in 10.0 mi Calm Calm - N/A   Clear
11:35 PM 45.9 °F - 45.3 °F 98% 29.93 in 10.0 mi Calm Calm - N/A   Scattered Clouds
11:55 PM 46.6 °F - 45.9 °F 97% 29.93 in 10.0 mi Calm Calm - N/A   Mostly Cloudy